Flag for U.S.A. Weather past 2 weeks in Charleston, South Carolina, U.S.A.

52 °F

Passing clouds.

Feels Like: 48 °F
Forecast: 53 / 71 °F
Wind: 10 mph from Northeast

Location: Charleston Air Force Base Reporting Station

Current Time: Nov 26, 2015 at 4:28:36 AM

Latest Report: Nov 26, 2015 at 3:56 AM

Visibility: 10 mi

Pressure: 30.55 "Hg

Humidity: 83%

Dew point: 47 °F

Location of CharlestonLocation

Historic Weather in Charleston — Graph


Charleston temperature yesterday

Maximum temperature yesterday: 67 °F (at 1:56 PM)
Minimum temperature yesterday: 39 °F (at 12:56 AM)
Average temperature yesterday: 54 °F

Past Weeks' High & Low Weather Summary

High79 °F (Nov 12, 1:56 PM)97% (Nov 12, 2:56 AM)30.57 "Hg (Nov 12, 2:56 AM)
Low32 °F (Nov 24, 5:56 AM)24% (Nov 14, 11:56 AM)29.87 "Hg (Nov 22, 4:56 AM)
Average58 °F72%30.18 "Hg
* Reported Nov 11 2:56 AM — Nov 26 2:56 AM, Charleston, Weather by CustomWeather, © 2015

Note: Actual official high and low records may vary slightly from our data, if they occured in-between our weather recording intervals... More about our weather records


Charleston weather history for previous 24 hours

Time TempWeatherWind HumidityBarometerVisibility
2:56 AM
Thu, Nov 26
53 °FPassing clouds.10 mph80%30.55 "Hg10 mi
1:56 AM54 °FPassing clouds.10 mph77%30.55 "Hg10 mi
12:56 AM54 °FPassing clouds.8 mph74%30.56 "Hg10 mi
11:56 PM
Wed, Nov 25
54 °FPassing clouds.10 mph74%30.57 "Hg10 mi
10:56 PM55 °FClear.12 mph69%30.57 "Hg10 mi
9:56 PM57 °FPassing clouds.12 mph64%30.56 "Hg10 mi
8:56 PM58 °FPassing clouds.12 mph65%30.56 "Hg10 mi
7:56 PM58 °FPassing clouds.9 mph67%30.56 "Hg10 mi
6:56 PM58 °FPartly cloudy.7 mph70%30.55 "Hg10 mi
5:56 PM58 °FPassing clouds.6 mph72%30.54 "Hg10 mi
4:56 PM62 °FScattered clouds.9 mph60%30.53 "Hg10 mi
3:56 PM65 °FPartly sunny.13 mph54%30.52 "Hg10 mi
2:56 PM67 °FPartly sunny.12 mph49%30.52 "Hg10 mi
1:56 PM67 °FScattered clouds.10 mph47%30.52 "Hg10 mi
12:56 PM66 °FScattered clouds.10 mph49%30.53 "Hg10 mi
11:56 AM64 °FPassing clouds.10 mph52%30.56 "Hg10 mi
10:56 AM61 °FPassing clouds.12 mph54%30.57 "Hg10 mi
9:56 AM58 °FPassing clouds.12 mph54%30.55 "Hg10 mi
8:56 AM53 °FSunny.12 mph56%30.54 "Hg10 mi
7:56 AM47 °FSunny.9 mph71%30.52 "Hg10 mi
6:56 AM43 °FClear.7 mph76%30.50 "Hg10 mi
5:56 AM43 °FClear.9 mph76%30.48 "Hg10 mi
4:56 AM43 °FClear.9 mph76%30.47 "Hg10 mi
Weather by CustomWeather, © 2015

See weather overviewHow to use our weather pages